Location: Sperry Observatory
(40.6664°N, 74.3236°W)
Time: 21:57:53
(UTC-04:00)

UOSAT-12 - Visible Passes

Search period start: 28 August 2016 00:00
Search period end: 07 September 2016 00:00
Orbit: 624 x 630 km, 64.6° (Epoch: 28 August)

Date Brightness Start Highest point End Pass type
(mag) Time Alt. Az. Time Alt. Az. Time Alt. Az.
28 Aug 10.3 01:12:38 11° NNE 01:12:38 11° NNE 01:12:44 10° NNE visible
29 Aug 10.2 01:31:48 12° N 01:31:48 12° N 01:32:12 10° N visible
30 Aug 10.2 01:50:58 11° N 01:50:58 11° N 01:51:10 10° N visible
05 Sep 10.0 05:33:30 10° N 05:36:06 15° NE 05:38:42 10° ENE visible
06 Sep 9.4 05:52:31 10° N 05:56:23 26° NE 06:00:14 10° ESE visible
